Regional Weather Roundup
Issued by NWS Charleston, WV

Home | Current Version | Previous Version | Graphics & Text | Print | Product List | Glossary On
Versions: 1 2 3 4 5 6 7 8 9 10 11 12 13 14 15 16 17 18 19 20 21 22 23 24 25 26 27 28 29 30 31 32 33 34 35 36 37 38 39 40 41 42 43 44 45 46 47 48 49 50
000
ASUS41 KRLX 281610
RWRRLX
West Virginia Regional Weather Roundup
National Weather Service Charleston WV
1200 PM EDT THU JUL 28 2016

Note: "fair" indicates few or no clouds below 12,000 feet with no
significant weather and/or obstructions to visibility.

WVZ003-281700-
Northern Panhandle of West Virginia

CITY           SKY/WX    TMP DP  RH WIND       PRES   REMARKS
WHEELING       LGT RAIN  72  67  84 SE5       29.95F
$$

WVZ009-281700-
Northwest West Virginia

CITY           SKY/WX    TMP DP  RH WIND       PRES   REMARKS
PARKERSBURG    CLOUDY    73  70  90 SE3       29.97S
$$

WVZ006-281700-
Western West Virginia

CITY           SKY/WX    TMP DP  RH WIND       PRES   REMARKS
HUNTINGTON     LGT RAIN  74  71  91 E5        29.93F FOG
$$

WVZ015-281700-
West Central West Virginia

CITY           SKY/WX    TMP DP  RH WIND       PRES   REMARKS
CHARLESTON     CLOUDY    75  71  87 CALM      29.95S
$$

WVZ022-031-281700-
North Central West Virginia

CITY           SKY/WX    TMP DP  RH WIND       PRES   REMARKS
CLARKSBURG     CLOUDY    77  73  87 NW8       29.97R
MORGANTOWN     LGT RAIN  70  68  93 CALM      29.99F FOG
$$

WVZ025-035-042-045-281700-
Southern West Virginia

CITY           SKY/WX    TMP DP  RH WIND       PRES   REMARKS
BECKLEY        CLOUDY    75  68  78 SW7       30.03F
LOGAN            N/A     79  72  78 CALM      29.96F
BLUEFIELD      PTSUNNY   76  66  71 SW7       30.06F
LEWISBURG        N/A     77  67  71 CALM      30.03S
$$

WVZ047-281700-
Northern Mountains of West Virginia

CITY           SKY/WX    TMP DP  RH WIND       PRES   REMARKS
ELKINS         CLOUDY    78  69  73 N5        30.00S
$$

WVZ052-281700-
Eastern Panhandle of West Virginia

CITY           SKY/WX    TMP DP  RH WIND       PRES   REMARKS
MARTINSBURG      N/A     84  71  65 S6        29.91S
PETERSBURG       N/A     87  73  62 CALM      29.92F
$$



USA.gov is the U.S. government's official web portal to all federal, state and local government web resources and services.